Regional Weather Roundup
Issued by NWS Kansas City/Pleasant Hill, MO

Home | Current Version | Previous Version | Graphics & Text | Print | Product List | Glossary Off
Versions: 1 2 3 4 5 6 7 8 9 10 11 12 13 14 15 16 17 18 19 20 21 22 23 24 25 26 27 28 29 30 31 32 33 34 35 36 37 38 39 40 41 42 43 44 45 46 47 48 49 50

000
ASUS43 KEAX 230010
RWREAX

WEATHER ROUNDUP FOR EASTERN KANSAS AND NORTHWEST MISSOURI
NATIONAL WEATHER SERVICE KANSAS CITY/PLEASANT HILL MO
700 PM CDT WED OCT 22 2014

KSZ040-057-103>105-MOZ028-029-037-043-230100-
...KANSAS CITY METROPOLITAN AREA...

CITY           SKY/WX    TMP DP  RH WIND       PRES   REMARKS
K.C. INTL      PTCLDY    64  55  72 SE10      30.10R
6HR MIN TEMP:  63; 6HR MAX TEMP:  72;

K.C. DOWNTOWN  CLEAR     69  53  56 SE8       30.09S
6HR MIN TEMP:  69; 6HR MAX TEMP:  75;

LEES SUMMIT    CLEAR     66  51  58 SE7       30.12S
6HR MIN TEMP:  65; 6HR MAX TEMP:  72;

OLATHE - IXD   CLEAR     66  56  70 SE9       30.10S
6HR MIN TEMP:  66; 6HR MAX TEMP:  73;

OLATHE - OJC   CLEAR     66  57  72 SE7       30.10R
6HR MIN TEMP:  66; 6HR MAX TEMP:  72;

LAWRENCE       CLEAR     67  56  67 SE9       30.08S

$$

MOZ001>008-011>017-020>025-030>033-038>040-044>046-053-054-230100-
...NORTHERN AND CENTRAL MISSOURI...

CITY           SKY/WX    TMP DP  RH WIND       PRES   REMARKS
ST. JOSEPH     PTCLDY    66  54  65 SE9       30.08S
6HR MIN TEMP:  65; 6HR MAX TEMP:  74;

MOSBY          MOCLDY    66  50  55 SE7       30.11R
WHITEMAN AFB   PTCLDY    61  48  63 SE6       30.14R
6HR MIN TEMP:  61; 6HR MAX TEMP:  71;

CLINTON        PTCLDY    64  50  59 SE5       30.15R
SEDALIA        CLEAR     60  47  61 SE7       30.17R
6HR MIN TEMP:  60; 6HR MAX TEMP:  71;

WARSAW         NOT AVBL
MARSHALL       CLEAR     63  48  59 E7        30.16F
CHILLICOTHE      N/A     63  47  55 SE6       30.15S
6HR MIN TEMP:  63; 6HR MAX TEMP:  69;

MOBERLY        CLEAR     55  39  54 SE5       30.19R
KIRKSVILLE     CLEAR     53  43  68 SE6       30.18R
6HR MIN TEMP:  52; 6HR MAX TEMP:  64;


$$

MOZ041-047>049-056>058-063>065-088>090-097-230100-
...EASTERN AND SOUTHERN MISSOURI...

CITY           SKY/WX    TMP DP  RH WIND       PRES   REMARKS
ST. LOUIS INTL PTCLDY    58  42  55 E8        30.20
6HR MIN TEMP:  57; 6HR MAX TEMP:  63;

SPIRIT OF STL  CLEAR     50  44  80 CALM      30.20S
COLUMBIA       CLEAR     58  42  55 E6        30.18R
JEFFERSON CITY CLEAR     57  42  57 E3        30.18R
MEXICO         CLEAR     55  46  71 SE3       30.19R
HANNIBAL       CLEAR     55  37  50 SE6       30.19S
ROLLA          CLEAR     54  39  57 E6        30.17R
LEBANON        CLEAR     59  46  63 CALM      30.18S
OSAGE BEACH    CLEAR     57  45  62 E3        30.17R
SPRINGFIELD    CLEAR     59  47  64 S6        30.16R
BRANSON        PTCLDY    57  48  72 SE6       30.17R
NEVADA         CLEAR     61  54  77 E7        30.14R HAZE
JOPLIN         CLEAR     66  56  70 E8        30.12S
WEST PLAINS    CLEAR     55  43  63 E3        30.19R

$$

IAZ060-094-KSZ022-034>040-054-083-096-NEZ052-066-093-230100-
...KANSAS...SOUTHEAST NEBRASKA AND IOWA...

CITY           SKY/WX    TMP DP  RH WIND       PRES   REMARKS
TOPEKA         PTCLDY    71  60  68 SE8       30.06R
6HR MIN TEMP:  71; 6HR MAX TEMP:  80;

MANHATTAN      PTCLDY    73  55  53 S9        30.03R
EMPORIA        LGT RAIN  69  56  62 SE9       30.06S
CHANUTE        PTCLDY    68  58  70 SE7       30.09R
WICHITA        CLOUDY    73  54  51 S9        30.05R
OMAHA          CLOUDY    71  53  52 SE17      30.00R
LINCOLN        RAIN      64  61  90 W6        30.05R FOG
FALLS CITY     LGT RAIN  68  56  65 SE9       30.04R
LAMONI         PTCLDY    60  47  61 SE10      30.12R
DES MOINES     MOCLDY    62  46  55 SE15      30.12R

$$




USA.gov is the U.S. government's official web portal to all federal, state and local government web resources and services.